Location: Boiro
(42.6475°N, 8.8834°W)
Time: 11:50:56
(UTC+01:00)

Vanguard 2 Rocket - Pass Details

Date: 11 December 2021
Orbit: 554 x 3325 km, 32.9° (Epoch: 19 January)

Event Time Altitude Azimuth Distance (km) Brightness Sun altitude
Rises 20:30:50 0° 258° (WSW) 3,140 11.0 -26.5°
Reaches altitude 10° 20:33:03 10° 247° (WSW) 2,420 10.0 -26.9°
Maximum altitude 20:38:06 32° 185° (S) 1,779 8.4 -27.8°
Enters shadow 20:40:57 26° 150° (SSE) 2,311 8.7 -28.3°
